[[{"header":{"parameterUnit":"m.s-1","parameterCategory":1,"la1":30.2991,"la2":30.254,"lo1":-89.0895,"lo2":-89.0444,"dy":0.0017,"dx":0.0017,"nx":28,"ny":28,"refTime":"2024-02-14T09:00:00:Z","depth":0,"parameterNumber":2,"parameterNumberName":"U-component_of_WINDS"},"data":[0,0,0,0,0,0,0,0,0,0,0,0,0,0,0,0,0,0,0,0,0,0,0,0,0,0,0,0,0,0,0,0,0,0,0,0,0,0,0,0,0,0,0,0,0,0,0,0,0,0,0,0,0,0,0,0,0,0,0.7756,0.7757,0,0.7789,0.779,0.779,0.7793,0.7792,0.7792,0.7791,0.7824,0.7825,0.7826,0,0,0,0,0,0,0,0,0,0,0,0,0,0.7693,0.7694,0.7756,0.7757,0.7757,0.7789,0.779,0.779,0.7793,0.7792,0.7792,0.7791,0.7823,0.7825,0.7826,0,0,0,0,0,0,0,0,0,0,0,0,0,0.7722,0.7694,0.7756,0.7762,0.7763,0.7789,0.779,0.779,0.7793,0.7792,0.7792,0.7791,0.7823,0.7825,0.7826,0.7848,0,0,0.7832,0.7833,0,0,0,0,0,0,0,0,0.7721,0.7725,0.7761,0.7762,0.7763,0.7786,0.7779,0.781,0.7793,0.7781,0.7791,0.7791,0.7812,0.7814,0.7822,0.785,0.7851,0.7832,0.7833,0.7834,0.7834,0,0,0,0,0,0,0,0.7719,0.7723,0.7769,0.7761,0.7763,0.7762,0.7766,0.7785,0.7799,0.7782,0.7783,0.7787,0.7812,0.782,0.7822,0.7852,0.7832,0.7834,0.7835,0.7835,0.7897,0.7897,0,0,0,0,0,0,0.7716,0.7722,0.7768,0.777,0.774,0.7764,0.7768,0.7779,0.7799,0.7801,0.7787,0.7787,0.7817,0.782,0.7824,0.7849,0.7834,0.7836,0.7837,0.7896,0.7897,0.7897,0,0,0,0,0,0,0.7714,0.772,0.7767,0.7746,0.7752,0.7766,0.7778,0.778,0.7788,0.7802,0.7805,0.7793,0.7817,0.7821,0.7842,0.785,0.7836,0.7838,0.7895,0.7896,0.7897,0.7901,0,0,0,0,0,0,0.7713,0.7719,0.7729,0.7746,0.7753,0.7785,0.7779,0.7781,0.7791,0.7791,0.7808,0.7811,0.7817,0.7839,0.7843,0.7852,0.7839,0.7895,0.7896,0.7897,0.79,0.7901,0.7903,0,0,0,0,0,0.771,0.7729,0.7729,0.7735,0.7765,0.7786,0.779,0.7797,0.7792,0.7801,0.781,0.781,0.7848,0.7841,0.7846,0.7856,0.7894,0.7896,0.7897,0.7899,0.7901,0.7903,0,0,0,0,0,0,0.7712,0.7731,0.7732,0.7757,0.7769,0.7786,0.7798,0.7799,0.7813,0.7812,0.782,0.7824,0.7844,0.7852,0.7843,0.7877,0.7871,0.7873,0.7871,0.7873,0.7874,0.7872,0.7841,0,0,0,0,0,0.7715,0.7731,0.7747,0.7767,0.7773,0.7784,0.7794,0.7798,0.7811,0.7817,0.7827,0.784,0.7854,0.7864,0.7879,0.7901,0.7904,0.791,0.7911,0.7912,0.7914,0.7925,0.7927,0.7901,0.7901,0.7901,0,0,0.7722,0.7734,0.7744,0.7767,0.7778,0.7793,0.7789,0.7806,0.7817,0.7819,0.7839,0.7847,0.7861,0.7882,0.7892,0.789,0.7922,0.7914,0.7915,0.7916,0.7926,0.7929,0.7931,0.7902,0.7902,0.7902,0,0,0.7742,0.7753,0.7771,0.7781,0.7797,0.7804,0.7807,0.7824,0.7829,0.7849,0.7851,0.7863,0.7889,0.7899,0.7907,0.7928,0.7929,0.7933,0.7941,0.7951,0.7953,0.7955,0.7961,0.7964,0.7934,0.7934,0.7934,0,0.7748,0.7772,0.7779,0.7795,0.7805,0.7807,0.7824,0.7834,0.7853,0.7859,0.7856,0.7887,0.7897,0.792,0.7924,0.7932,0.7935,0.7931,0.7952,0.7954,0.7956,0.7962,0.7965,0.7935,0.7935,0.7935,0.7935,0,0.7778,0.7794,0.7806,0.7825,0.7835,0.7852,0.786,0.787,0.7873,0.788,0.7899,0.7911,0.7927,0.7932,0.7936,0.7955,0.7953,0.7951,0.7945,0.7959,0.7964,0.7967,0.7935,0.7935,0.7935,0.7935,0,0,0.7801,0.7822,0.7826,0.7834,0.7851,0.7863,0.7878,0.7894,0.7902,0.7915,0.7927,0.7948,0.7946,0.7955,0.7959,0.7968,0.7982,0.7965,0.7965,0.7967,0.8002,0.8003,0.8006,0.7982,0.7983,0.7983,0.8001,0,0.7822,0.7851,0.7857,0.7881,0.7895,0.7897,0.791,0.7921,0.7927,0.7939,0.7946,0.796,0.7957,0.7962,0.7971,0.7979,0.7989,0.7977,0.7993,0.7994,0.7989,0.8009,0.8011,0.8027,0.8003,0.8004,0.8004,0,0.7851,0.7864,0.789,0.7903,0.7909,0.7921,0.7935,0.7947,0.7958,0.7962,0.7972,0.7974,0.7989,0.7982,0.8002,0.7994,0.8,0.8005,0.8005,0.8007,0.7999,0.8011,0.8032,0.8034,0.8008,0.8008,0.8007,0,0.7864,0.7888,0.7906,0.7912,0.7928,0.7936,0.7943,0.7955,0.7963,0.7975,0.798,0.7993,0.8001,0.801,0.8016,0.8011,0.8035,0.8029,0.8037,0.8037,0.8042,0.8042,0.8065,0.8047,0.8047,0.8047,0.8047,0,0.7887,0.7902,0.7912,0.7923,0.7939,0.7945,0.7961,0.7967,0.7977,0.7988,0.7991,0.8001,0.8008,0.8019,0.8023,0.8038,0.8042,0.8044,0.8045,0.8044,0.8043,0.8048,0.8047,0.8048,0.8048,0.8048,0.8048,0,0.7904,0.7911,0.7931,0.7944,0.7947,0.7958,0.7969,0.7979,0.7985,0.7999,0.8003,0.8011,0.8024,0.8031,0.8047,0.805,0.8066,0.8067,0.8062,0.8063,0.807,0.8069,0.8097,0.81,0.8081,0.8081,0.8081,0,0.7918,0.793,0.7943,0.7951,0.7958,0.7971,0.7979,0.7985,0.7993,0.8006,0.8014,0.8027,0.8038,0.8058,0.8066,0.8078,0.8078,0.8087,0.808,0.8077,0.8077,0.8076,0.8076,0.8088,0.8088,0.8088,0.8088,0,0.7941,0.7944,0.7956,0.7969,0.7978,0.7989,0.7999,0.8005,0.8012,0.8021,0.8034,0.8042,0.8058,0.8071,0.8083,0.8089,0.8089,0.809,0.8093,0.8091,0.8088,0.8089,0.8065,0.809,0.809,0.8089,0.8089,0.8089,0.7957,0.7966,0.7977,0.799,0.7998,0.8007,0.8016,0.8023,0.8034,0.8047,0.805,0.8063,0.8073,0.8089,0.8096,0.8106,0.8104,0.8107,0.8108,0.8109,0.8109,0.8087,0.8108,0.8108,0.8108,0.8108,0.8108,0,0.7979,0.7986,0.7998,0.8011,0.8021,0.802,0.8031,0.8039,0.8051,0.806,0.807,0.8084,0.8096,0.8103,0.8115,0.8121,0.8122,0.8124,0.8123,0.8125,0.8111,0.8107,0.8124,0.8124,0.8124,0.8124,0.8124,0.8124,0.7992,0.8008,0.8011,0.8031,0.8037,0.805,0.8056,0.8064,0.8071,0.8087,0.8096,0.8101,0.8109,0.8121,0.8131,0.8133,0.8137,0.8139,0.8141,0.8127,0.8126,0.8124,0.8121,0.814,0.814,0.8154,0.8154,0.8154]},{"header":{"parameterUnit":"m.s-1","parameterCategory":1,"la1":30.2991,"la2":30.254,"lo1":-89.0895,"lo2":-89.0444,"dy":0.0017,"dx":0.0017,"nx":28,"ny":28,"refTime":"2024-02-14T09:00:00:Z","depth":0,"parameterNumber":3,"parameterNumberName":"V-component_of_WINDS"},"data":[0,0,0,0,0,0,0,0,0,0,0,0,0,0,0,0,0,0,0,0,0,0,0,0,0,0,0,0,0,0,0,0,0,0,0,0,0,0,0,0,0,0,0,0,0,0,0,0,0,0,0,0,0,0,0,0,0,0,1.3409,1.341,0,1.3504,1.3505,1.3506,1.3488,1.3487,1.3485,1.3483,1.3576,1.358,1.3584,0,0,0,0,0,0,0,0,0,0,0,0,0,1.3205,1.3209,1.3408,1.341,1.3411,1.3504,1.3505,1.3506,1.3489,1.3487,1.3485,1.3483,1.3575,1.3579,1.3584,0,0,0,0,0,0,0,0,0,0,0,0,0,1.3296,1.321,1.3408,1.3413,1.3415,1.3503,1.3505,1.3507,1.3489,1.3487,1.3484,1.3482,1.3573,1.3579,1.3585,1.3673,0,0,1.3603,1.3606,0,0,0,0,0,0,0,0,1.3291,1.3303,1.3411,1.3413,1.3415,1.3482,1.3467,1.3562,1.349,1.3461,1.3483,1.348,1.3546,1.3554,1.3578,1.3677,1.3681,1.3604,1.3607,1.361,1.3612,0,0,0,0,0,0,0,1.3284,1.3299,1.3446,1.3413,1.3415,1.3409,1.3419,1.3485,1.3516,1.3463,1.3462,1.3474,1.3547,1.3572,1.358,1.3682,1.3604,1.3609,1.3613,1.3615,1.3856,1.3858,0,0,0,0,0,0,1.3277,1.3294,1.3443,1.3449,1.3346,1.3414,1.3426,1.3463,1.3516,1.3521,1.3476,1.3473,1.3563,1.3573,1.3583,1.3688,1.361,1.3616,1.3619,1.3853,1.3856,1.3859,0,0,0,0,0,0,1.3273,1.3291,1.3439,1.3371,1.339,1.3421,1.3462,1.3466,1.3491,1.3525,1.353,1.3496,1.3561,1.3574,1.365,1.3691,1.3618,1.3624,1.385,1.3854,1.3858,1.3899,0,0,0,0,0,0,1.3267,1.3289,1.3325,1.3372,1.3393,1.3507,1.3465,1.347,1.3502,1.3499,1.3546,1.3551,1.356,1.3641,1.3656,1.3698,1.3629,1.3846,1.3852,1.3856,1.3895,1.3904,1.3913,0,0,0,0,0,1.326,1.3332,1.3327,1.3345,1.3439,1.351,1.3521,1.3532,1.3506,1.354,1.3562,1.355,1.3684,1.3649,1.3666,1.371,1.3844,1.385,1.3856,1.389,1.3903,1.3913,0,0,0,0,0,0,1.3288,1.3339,1.3333,1.3423,1.3462,1.3507,1.3551,1.3545,1.3591,1.3586,1.3595,1.3606,1.3683,1.3704,1.3664,1.3796,1.376,1.377,1.378,1.3792,1.3801,1.3794,1.3634,0,0,0,0,0,1.3304,1.336,1.34,1.3476,1.3496,1.352,1.3551,1.3556,1.3596,1.3612,1.3639,1.3677,1.3728,1.3761,1.3809,1.3897,1.3906,1.3935,1.3944,1.3952,1.396,1.4006,1.4019,1.388,1.388,1.388,0,0,1.3339,1.3374,1.3408,1.3482,1.3513,1.3568,1.3534,1.3594,1.3634,1.3621,1.3694,1.3715,1.3758,1.384,1.3877,1.386,1.4001,1.396,1.3965,1.397,1.4014,1.4027,1.4039,1.3884,1.3883,1.3882,0,0,1.343,1.3463,1.3529,1.356,1.3608,1.3623,1.3639,1.3684,1.3698,1.3772,1.3762,1.3809,1.3896,1.3927,1.3954,1.4054,1.4044,1.4069,1.4117,1.4162,1.4173,1.4183,1.4217,1.423,1.4077,1.4078,1.4078,0,1.3467,1.3552,1.3563,1.3624,1.3655,1.3647,1.3712,1.3741,1.3801,1.3822,1.3802,1.3911,1.3939,1.4027,1.4051,1.4074,1.409,1.4064,1.4171,1.4181,1.419,1.4223,1.4236,1.408,1.408,1.408,1.4079,0,1.3594,1.3652,1.3699,1.3759,1.3796,1.3859,1.3877,1.3912,1.3913,1.3929,1.4003,1.4037,1.4091,1.4112,1.4113,1.42,1.4187,1.4169,1.4132,1.4206,1.4237,1.425,1.4084,1.4083,1.4082,1.4082,0,0,1.3707,1.3771,1.3788,1.3814,1.3865,1.3909,1.397,1.4024,1.4054,1.4095,1.4145,1.4218,1.4201,1.4231,1.4235,1.4274,1.435,1.4251,1.4252,1.4267,1.4445,1.4458,1.4473,1.4343,1.4346,1.4348,1.4441,0,1.3803,1.3913,1.3923,1.402,1.4073,1.4064,1.4117,1.4152,1.4169,1.4214,1.4231,1.4282,1.4257,1.4275,1.4313,1.4333,1.4385,1.4326,1.4388,1.439,1.4377,1.449,1.4504,1.4591,1.4453,1.4456,1.4457,0,1.393,1.3976,1.4079,1.412,1.4143,1.419,1.424,1.4284,1.4323,1.4331,1.4365,1.4363,1.4423,1.4383,1.4465,1.4424,1.4449,1.4462,1.4466,1.4472,1.4428,1.4498,1.4619,1.4632,1.4477,1.4475,1.4474,0,1.4001,1.4088,1.416,1.4183,1.4234,1.4267,1.4289,1.4326,1.4357,1.4399,1.4419,1.4468,1.4494,1.453,1.454,1.4511,1.462,1.4583,1.4628,1.4628,1.4652,1.465,1.4779,1.4669,1.4668,1.4668,1.4668,0,1.4106,1.417,1.4193,1.4238,1.4307,1.4317,1.4384,1.4404,1.4436,1.4483,1.4477,1.452,1.4531,1.4576,1.4584,1.4649,1.4661,1.4668,1.4669,1.4669,1.4668,1.4686,1.468,1.4672,1.4671,1.467,1.467,0,1.4198,1.4216,1.4295,1.4336,1.4348,1.4397,1.4431,1.4473,1.4487,1.4546,1.456,1.4583,1.4635,1.4649,1.471,1.4715,1.4792,1.4788,1.478,1.4779,1.4824,1.4819,1.4968,1.4987,1.4865,1.4866,1.4867,0,1.4265,1.4313,1.4359,1.4391,1.4415,1.4466,1.4498,1.4508,1.4541,1.4588,1.4623,1.4674,1.4716,1.4799,1.482,1.4866,1.4862,1.4911,1.4869,1.4866,1.4862,1.4859,1.4863,1.4919,1.492,1.4922,1.4922,0,1.438,1.4386,1.4434,1.4484,1.4522,1.4562,1.46,1.4625,1.464,1.4677,1.4731,1.4763,1.4826,1.4876,1.4923,1.4943,1.4935,1.4935,1.4948,1.4948,1.4941,1.4944,1.4801,1.4932,1.4931,1.493,1.493,1.4929,1.4461,1.4503,1.4542,1.4594,1.4623,1.4658,1.4699,1.4719,1.4765,1.4818,1.482,1.4878,1.4912,1.4974,1.4997,1.5041,1.5026,1.5045,1.5049,1.5054,1.5057,1.4934,1.5049,1.5049,1.5049,1.5048,1.5048,0,1.4575,1.46,1.4648,1.4701,1.4741,1.4731,1.4771,1.4805,1.4857,1.4891,1.4932,1.4992,1.504,1.5064,1.5111,1.5142,1.5139,1.5153,1.5151,1.5156,1.5068,1.5052,1.5155,1.5155,1.5155,1.5155,1.5155,1.5155,1.464,1.471,1.472,1.4804,1.4827,1.4885,1.4909,1.494,1.4967,1.5035,1.5076,1.5091,1.512,1.5169,1.5212,1.5217,1.5235,1.5251,1.5255,1.5173,1.5162,1.5152,1.5137,1.5255,1.5255,1.5338,1.5339,1.534]}]]